This demonstration page uses our WeatherBlox Daily Observations layout. Learn more.

Left ArrowRight Arrow

39.01783, -85.05884

Hourly Observations for October 4, 2015

Temp ( °F °C ) Dew Point ( °F °C ) Humidity (%) Winds ( mph kmh ) Pressure ( in mb ) Visibility ( mi km ) Precip ( " mm )
12:52 am 00:52 Cloudy 52 11.1 50 10 93 93 NE 12 19 30.01 1016 10 16 N/A
1:33 am 01:33 Cloudy 54 12 50 10 88 88 NE 13 20 30.00 1016 10 16 N/A
1:52 am 01:52 Mostly Cloudy 53 11.7 50 10 89 89 NE 14 22 30.00 1016 10 16 N/A
1:59 am 01:59 Mostly Cloudy 54 12 50 10 88 88 NE 12 19 30.00 1016 10 16 N/A
2:38 am 02:38 Cloudy 54 12 52 11 94 94 NE 13 20 30.00 1016 10 16 N/A
2:52 am 02:52 Cloudy 54 12.2 51 10.6 90 90 NE 10 17 30.01 1016 10 16 N/A
3:52 am 03:52 Cloudy 54 12.2 51 10.6 90 90 NE 12 19 30.01 1016 10 16 N/A
4:52 am 04:52 Mostly Cloudy 54 12.2 51 10.6 90 90 NE 13 20 30.01 1016 10 16 N/A
5:52 am 05:52 Cloudy 54 12.2 51 10.6 90 90 NE 13 20 30.02 1017 10 16 N/A
6:52 am 06:52 Cloudy 55 12.8 51 10.6 87 87 NE 12 19 30.03 1017 10 16 N/A
7:52 am 07:52 Cloudy 55 12.8 50 10 83 83 NE 12 19 30.04 1017 10 16 N/A
8:52 am 08:52 Mostly Cloudy 56 13.3 50 10 81 81 ENE 12 19 30.06 1018 10 16 N/A
10:52 am 10:52 Mostly Cloudy 62 16.7 52 11.1 70 70 ENE 9 15 30.06 1018 10 16 N/A
11:52 am 11:52 Mostly Cloudy 65 18.3 53 11.7 66 66 NE 13 20 30.06 1018 10 16 N/A
12:52 pm 12:52 Mostly Cloudy 69 20.6 55 12.8 61 61 ENE 13 20 30.04 1017 10 16 N/A
1:52 pm 13:52 Mostly Cloudy 72 22.2 56 13.3 57 57 ENE 12 19 30.04 1017 10 16 N/A
2:52 pm 14:52 Mostly Cloudy 74 23.3 57 13.9 56 56 ENE 10 17 30.01 1016 10 16 N/A
3:52 pm 15:52 Mostly Cloudy 76 24.4 58 14.4 54 54 NE 12 19 30.00 1016 10 16 N/A
4:52 pm 16:52 Mostly Cloudy 76 24.4 58 14.4 54 54 NE 12 19 30.00 1016 10 16 N/A
5:52 pm 17:52 Mostly Cloudy 75 23.9 57 13.9 54 54 E 10 17 30.01 1016 10 16 N/A
6:52 pm 18:52 Mostly Cloudy 74 23.3 57 13.9 56 56 NE 9 15 30.02 1017 10 16 N/A
7:52 pm 19:52 Partly Cloudy 69 20.6 58 14.4 68 68 E 8 13 30.04 1017 10 16 N/A
8:52 pm 20:52 Partly Cloudy 66 18.9 58 14.4 75 75 E 8 13 30.04 1017 10 16 N/A
9:52 pm 21:52 Partly Cloudy 66 18.9 58 14.4 75 75 E 8 13 30.06 1018 10 16 N/A
10:52 pm 22:52 Partly Cloudy 64 17.8 57 13.9 78 78 E 6 9 30.05 1018 10 16 N/A
11:52 pm 23:52 Mostly Clear 65 18.3 57 13.9 76 76 E 13 20 30.06 1018 10 16 N/A

Powered by AerisWeather